Regional Weather Roundup
Issued by NWS

Home | Current Version | Previous Version | Text Only | Print | Product List | Glossary On
Versions: 1 2 3 4 5 6 7 8 9 10 11 12 13 14 15 16 17 18 19 20 21 22 23 24 25 26 27 28 29 30 31 32 33 34 35 36 37 38 39 40 41 42 43 44 45 46 47 48 49 50
000
ASUS43 KLOT 141603
RWRIL

ILLINOIS REGIONAL WEATHER ROUNDUP
NATIONAL WEATHER SERVICE CHICAGO/ROMEOVILLE IL
1000 AM CST SUN FEB 14 2016

NOTE: "FAIR" INDICATES FEW OR NO CLOUDS BELOW 12,000 FEET WITH NO
SIGNIFICANT WEATHER AND/OR OBSTRUCTIONS TO VISIBILITY.

* THESE STATIONS ARE NOT UNDER NWS QUALITY CONTROL. THEY ALSO MAY NOT
  REPORT WEATHER SUCH AS PRECIPITATION OR FOG.

ILZ001-002-007-009-015-016-024-141700-
NORTHWEST ILLINOIS

CITY           SKY/WX    TMP DP  RH WIND       PRES   REMARKS
MOLINE         SNOW      17  13  84 E12       30.15F VSB 1/2 WCI   4
STERLING*      CLOUDY    16  10  79 SE14G22   30.18F VSB 1/4 WCI   1
$$

ILZ003-004-008-010-011-017-018-141700-
NORTH CENTRAL ILLINOIS

CITY           SKY/WX    TMP DP  RH WIND       PRES   REMARKS
ROCKFORD       FLURRIES  17   3  54 SE15G28   30.24F WCI   2
FREEPORT*      LGT SNOW  15   7  70 SE17G26   30.21S WCI  -1
DE KALB*       CLOUDY    16   4  60 SE21      30.23F WCI  -2
$$

ILZ005-006-012>014-019>023-141700-
NORTHEAST ILLINOIS

CITY           SKY/WX    TMP DP  RH WIND       PRES   REMARKS
CHICAGO-OHARE  CLOUDY    17   2  51 SE15      30.28R WCI   2
CHICAGO-MIDWAY CLOUDY    18   1  47 SE16      30.29S WCI   3
AURORA         CLOUDY    17   4  56 SE17      30.25S WCI   1
LANSING*       CLOUDY    17   3  55 SE13      30.29F WCI   3
WAUKEGAN       CLOUDY    17   8  67 SE21G28   30.27S WCI   0
DUPAGE AIRPORT CLOUDY    16   1  51 SE16      30.24F WCI   1
WHEELING       CLOUDY    16   5  62 SE13      30.30S WCI   2
NORTHERLY ISL    N/A     17   6  62 E18         N/A  WCI   1
$$

LMZ740>746-141700-
SOUTHERN LAKE MICHIGAN

STATION/POSITION SKY/WX   TEMP    WIND        PRES    VSBY  WAVE
                          AIR SEA DIR/SP/G                  HT/PER
                          (F)     (DEG/KT/KT) (MB)    (MI)  (FT/S)
HARRISON CRIB              16     140/ 21/ 25   N/A
BURNHAM HARBOR             17     130/ 15/ 20   N/A
CALUMET HARBOR             15     110/ 13/ 21 1025.1F
BURNS HARBOR               14     130/ 13     1026.8F
MICHIGAN CITY              12     100/ 15/ 20   N/A
$$

ILZ025>027-034>036-040-047-049-050-058-095>099-141700-
WEST-CENTRAL ILLINOIS

CITY           SKY/WX    TMP DP  RH WIND       PRES   REMARKS
QUINCY         LGT SNOW  19  16  88 SE16      30.08F FOG     WCI   4
GALESBURG*     LGT SNOW  16  14  90 E13       30.14F VSB 3/4 WCI   2
MACOMB*        LGT SNOW  17  16  93 SE14      30.16F VSB 3/4 WCI   3
$$

ILZ028>032-037-038-041>044-048-051>054-059>061-141700-
CENTRAL ILLINOIS

CITY           SKY/WX    TMP DP  RH WIND       PRES   REMARKS
BLOOMINGTON    LGT SNOW  17  13  84 SE18G29   30.20S VSB 3/4 WCI   1
DECATUR        SNOW      18  13  80 SE16      30.21S VSB 1/2 WCI   3
PEORIA         SNOW      17  13  84 SE10      30.17F VSB 1/2 WCI   5
LINCOLN*       LGT SNOW  19  16  89 SE14      30.19F VSB 3/4 WCI   5
SPRINGFIELD    SNOW      20  15  81 SE17      30.18F VSB 1/2 WCI   5
TAYLORVILLE    NOT AVBL
$$

ILZ033-039-045-046-055>057-062-063-141700-
EAST-CENTRAL ILLINOIS

CITY           SKY/WX    TMP DP  RH WIND       PRES   REMARKS
CHAMPAIGN      CLOUDY    18  13  80 SE23      30.25R WCI   0
MATTOON        LGT SNOW  18  12  77 SE20      30.23S WCI   2
$$

ILZ079-100>102-141700-
SOUTHWEST ILLINOIS

CITY           SKY/WX    TMP DP  RH WIND       PRES   REMARKS
ALTON          LGT SNOW  21  18  86 SE14      30.16F VSB 1   WCI   8
BELLEVILLE     LGT SNOW  22  21  97 SE12      30.16F VSB 3/4 WCI  10
CAHOKIA*       SNOW      22  18  85 SE10      30.16F VSB 1/2 WCI  11
SPARTA*        LGT SNOW  21  19  90 SE10      30.18F VSB 1   WCI  10
$$

ILZ064>066-069>071-074>076-080>082-084>086-088>090-092>094-141700-
SOUTH-CENTRAL ILLINOIS

CITY           SKY/WX    TMP DP  RH WIND       PRES   REMARKS
CARBONDALE     SNOW      22  18  85 SE9       30.20F VSB 1/2 WCI  12
MARION         SNOW      23  21  93 SE15      30.22F VSB 1/2 WCI  10
MT. VERNON     CLOUDY    21  16  79 SE10      30.22F WCI  10
CENTRALIA*     LGT SNOW  23  20  89 SE14      30.20F VSB 3/4 WCI  11
SALEM*         LGT SNOW  24  19  82 SE13G21   30.20F VSB 3/4 WCI  12
$$

ILZ067-068-072-073-078-083-087-091-141700-
SOUTHEAST ILLINOIS

CITY           SKY/WX    TMP DP  RH WIND       PRES   REMARKS
LAWRENCEVILLE  CLOUDY    21  13  71 SE20      30.26F WCI   6
HARRISBURG*    SNOW      23  21  93 SE13      30.24F VSB 1/2 WCI  11
$$

ABBREVIATIONS USED IN REMARKS
   TC - TEMPERATURE IN CELSIUS
  WCI - WIND CHILL INDEX
   HX - HEAT INDEX
  VSB - VISIBILITY
$$




USA.gov is the U.S. government's official web portal to all federal, state and local government web resources and services.